[[{"header":{"parameterUnit":"m.s-1","parameterCategory":1,"la1":30.2991,"la2":30.254,"lo1":-89.0895,"lo2":-89.0444,"dy":0.0017,"dx":0.0017,"nx":28,"ny":28,"refTime":"2023-03-19T21:00:00:Z","depth":0,"parameterNumber":2,"parameterNumberName":"U-component_of_WINDS"},"data":[0,0,0,0,0,0,0,0,0,0,0,0,0,0,0,0,0,0,0,0,0,0,0,0,0,0,0,0,0,0,0,0,0,0,0,0,0,0,0,0,0,0,0,0,0,0,0,0,0,0,0,0,0,0,0,0,0,0,-0.6398,-0.6399,0,-0.6434,-0.6434,-0.6434,-0.6417,-0.6416,-0.6415,-0.6414,-0.6452,-0.6454,-0.6456,0,0,0,0,0,0,0,0,0,0,0,0,0,-0.6317,-0.6319,-0.6398,-0.6399,-0.6399,-0.6434,-0.6434,-0.6435,-0.6417,-0.6416,-0.6415,-0.6414,-0.6452,-0.6454,-0.6456,0,0,0,0,0,0,0,0,0,0,0,0,0,-0.6352,-0.6319,-0.6398,-0.6395,-0.6395,-0.6433,-0.6434,-0.6435,-0.6418,-0.6416,-0.6415,-0.6414,-0.6451,-0.6454,-0.6456,-0.6501,0,0,-0.6465,-0.6466,0,0,0,0,0,0,0,0,-0.635,-0.6355,-0.6395,-0.6395,-0.6395,-0.642,-0.6419,-0.6457,-0.6418,-0.6409,-0.6414,-0.6413,-0.6443,-0.6446,-0.6456,-0.6503,-0.6505,-0.6465,-0.6467,-0.6468,-0.6469,0,0,0,0,0,0,0,-0.6348,-0.6354,-0.6412,-0.6395,-0.6396,-0.6392,-0.6395,-0.6426,-0.6433,-0.641,-0.6408,-0.6413,-0.6442,-0.6453,-0.6456,-0.6505,-0.6465,-0.6468,-0.6469,-0.647,-0.6591,-0.6592,0,0,0,0,0,0,-0.6345,-0.6352,-0.6411,-0.6413,-0.6369,-0.6394,-0.6398,-0.6413,-0.6433,-0.6434,-0.6414,-0.6412,-0.6449,-0.6453,-0.6458,-0.6512,-0.6468,-0.6471,-0.6472,-0.6589,-0.6591,-0.6592,0,0,0,0,0,0,-0.6344,-0.6351,-0.641,-0.6382,-0.6389,-0.6397,-0.6414,-0.6415,-0.6425,-0.6436,-0.6437,-0.6423,-0.6448,-0.6454,-0.649,-0.6513,-0.6472,-0.6474,-0.6587,-0.659,-0.6592,-0.662,0,0,0,0,0,0,-0.6342,-0.635,-0.6367,-0.6383,-0.6391,-0.6442,-0.6415,-0.6416,-0.643,-0.6427,-0.6445,-0.6447,-0.6447,-0.6486,-0.6493,-0.6516,-0.6477,-0.6585,-0.6588,-0.6591,-0.6617,-0.6623,-0.6628,0,0,0,0,0,-0.6339,-0.6374,-0.6368,-0.6376,-0.6412,-0.6443,-0.6448,-0.6447,-0.6432,-0.6449,-0.6456,-0.6446,-0.6509,-0.649,-0.6498,-0.6522,-0.6584,-0.6587,-0.6591,-0.6615,-0.6622,-0.6628,0,0,0,0,0,0,-0.6362,-0.6376,-0.637,-0.6412,-0.6426,-0.644,-0.6462,-0.6455,-0.6475,-0.6472,-0.647,-0.6475,-0.6513,-0.652,-0.6499,-0.6566,-0.6544,-0.6549,-0.656,-0.6566,-0.6572,-0.657,-0.6479,0,0,0,0,0,-0.6372,-0.6396,-0.6407,-0.6442,-0.645,-0.6455,-0.6468,-0.6466,-0.6481,-0.6488,-0.6497,-0.6513,-0.6536,-0.6551,-0.6573,-0.6617,-0.6621,-0.6637,-0.6643,-0.6647,-0.6652,-0.6676,-0.6684,-0.6604,-0.6604,-0.6604,0,0,-0.6393,-0.6404,-0.6419,-0.6447,-0.6458,-0.6483,-0.646,-0.6487,-0.6506,-0.6492,-0.6527,-0.6534,-0.6552,-0.6592,-0.6611,-0.66,-0.6675,-0.6651,-0.6655,-0.6658,-0.6681,-0.6688,-0.6695,-0.6606,-0.6606,-0.6605,0,0,-0.6445,-0.6454,-0.6485,-0.6497,-0.6513,-0.6516,-0.6523,-0.6538,-0.6542,-0.6577,-0.6568,-0.6589,-0.6629,-0.6642,-0.6653,-0.6708,-0.67,-0.6715,-0.6744,-0.6767,-0.6774,-0.6779,-0.68,-0.6807,-0.6719,-0.672,-0.672,0,-0.6469,-0.6505,-0.6502,-0.653,-0.6543,-0.6531,-0.6562,-0.6573,-0.6597,-0.6606,-0.6593,-0.6643,-0.6653,-0.6697,-0.671,-0.672,-0.6728,-0.6714,-0.6773,-0.6779,-0.6784,-0.6803,-0.6811,-0.6721,-0.6721,-0.6721,-0.6721,0,-0.6535,-0.656,-0.6583,-0.6605,-0.662,-0.665,-0.6652,-0.6667,-0.6663,-0.6668,-0.6703,-0.6715,-0.6739,-0.6749,-0.6746,-0.6792,-0.6785,-0.6773,-0.6751,-0.6793,-0.6811,-0.6819,-0.6724,-0.6723,-0.6723,-0.6722,0,0,-0.6604,-0.6623,-0.6631,-0.6641,-0.6658,-0.6678,-0.6706,-0.6729,-0.6743,-0.6759,-0.6783,-0.6816,-0.6805,-0.6818,-0.6816,-0.6836,-0.688,-0.6822,-0.6822,-0.6833,-0.6932,-0.6942,-0.6951,-0.6874,-0.6875,-0.6876,-0.6931,0,-0.6657,-0.6707,-0.6705,-0.6752,-0.6775,-0.6763,-0.6788,-0.6801,-0.6805,-0.6826,-0.683,-0.6854,-0.6837,-0.6844,-0.6864,-0.687,-0.69,-0.6866,-0.6897,-0.6899,-0.6895,-0.696,-0.6971,-0.7022,-0.6937,-0.6939,-0.694,0,-0.6727,-0.6744,-0.6793,-0.6806,-0.6816,-0.6838,-0.6859,-0.6878,-0.6893,-0.6894,-0.6908,-0.6903,-0.6932,-0.6908,-0.6949,-0.6926,-0.6938,-0.6943,-0.6945,-0.6949,-0.6923,-0.6967,-0.7038,-0.7046,-0.6951,-0.695,-0.6949,0,-0.6773,-0.6809,-0.6843,-0.6852,-0.6867,-0.6883,-0.6891,-0.6904,-0.6917,-0.6935,-0.6944,-0.6965,-0.6977,-0.6993,-0.6993,-0.6976,-0.7035,-0.7011,-0.7037,-0.7037,-0.7052,-0.7051,-0.7127,-0.7057,-0.7057,-0.7057,-0.7057,0,-0.6834,-0.6865,-0.6864,-0.6886,-0.692,-0.6916,-0.695,-0.6955,-0.6967,-0.6989,-0.6979,-0.7,-0.6999,-0.702,-0.702,-0.7054,-0.7059,-0.7061,-0.7061,-0.7063,-0.7063,-0.7073,-0.707,-0.7059,-0.7059,-0.7058,-0.7058,0,-0.6893,-0.6894,-0.693,-0.6941,-0.6945,-0.6969,-0.6979,-0.6999,-0.7002,-0.703,-0.7036,-0.704,-0.7065,-0.7066,-0.7094,-0.7094,-0.7136,-0.7131,-0.7131,-0.7131,-0.7158,-0.7156,-0.7244,-0.7255,-0.7177,-0.7177,-0.7178,0,-0.6932,-0.6956,-0.6969,-0.6983,-0.6991,-0.7013,-0.7027,-0.7024,-0.7038,-0.7056,-0.7074,-0.7097,-0.7116,-0.7156,-0.7162,-0.7183,-0.718,-0.7209,-0.7183,-0.7184,-0.7181,-0.7181,-0.7183,-0.7215,-0.7215,-0.7216,-0.7217,0,-0.7003,-0.7002,-0.7021,-0.7041,-0.7057,-0.7073,-0.7087,-0.7099,-0.7098,-0.7115,-0.7139,-0.7153,-0.7182,-0.7205,-0.7226,-0.7234,-0.7226,-0.7224,-0.7232,-0.7235,-0.7234,-0.7236,-0.7146,-0.7223,-0.7222,-0.7222,-0.7222,-0.7221,-0.7054,-0.7074,-0.7086,-0.7109,-0.7119,-0.7132,-0.7152,-0.7156,-0.7176,-0.7199,-0.7195,-0.7223,-0.7236,-0.7263,-0.7272,-0.7293,-0.7284,-0.7294,-0.7297,-0.73,-0.7304,-0.7229,-0.7297,-0.7297,-0.7297,-0.7296,-0.7296,0,-0.7125,-0.7132,-0.7152,-0.7172,-0.719,-0.7178,-0.7193,-0.7209,-0.7233,-0.7246,-0.7264,-0.7292,-0.7314,-0.7321,-0.7343,-0.7359,-0.7356,-0.7365,-0.7364,-0.7366,-0.7311,-0.7303,-0.7367,-0.7367,-0.7367,-0.7367,-0.7367,-0.7367,-0.7164,-0.7197,-0.7198,-0.7236,-0.7243,-0.7269,-0.7279,-0.7291,-0.7301,-0.7333,-0.7351,-0.7355,-0.7365,-0.7387,-0.7407,-0.7409,-0.7418,-0.7429,-0.7429,-0.7377,-0.737,-0.7364,-0.7356,-0.743,-0.7431,-0.7483,-0.7483,-0.7484]},{"header":{"parameterUnit":"m.s-1","parameterCategory":1,"la1":30.2991,"la2":30.254,"lo1":-89.0895,"lo2":-89.0444,"dy":0.0017,"dx":0.0017,"nx":28,"ny":28,"refTime":"2023-03-19T21:00:00:Z","depth":0,"parameterNumber":3,"parameterNumberName":"V-component_of_WINDS"},"data":[0,0,0,0,0,0,0,0,0,0,0,0,0,0,0,0,0,0,0,0,0,0,0,0,0,0,0,0,0,0,0,0,0,0,0,0,0,0,0,0,0,0,0,0,0,0,0,0,0,0,0,0,0,0,0,0,0,0,-6.701,-6.7011,0,-6.7079,-6.7079,-6.708,-6.7011,-6.7008,-6.7005,-6.7003,-6.7068,-6.7072,-6.7076,0,0,0,0,0,0,0,0,0,0,0,0,0,-6.6816,-6.682,-6.701,-6.7011,-6.7012,-6.7079,-6.7079,-6.708,-6.7011,-6.7008,-6.7005,-6.7002,-6.7067,-6.7072,-6.7077,0,0,0,0,0,0,0,0,0,0,0,0,0,-6.6894,-6.6822,-6.701,-6.6986,-6.6984,-6.7078,-6.7079,-6.7081,-6.7012,-6.7008,-6.7004,-6.7,-6.7065,-6.7071,-6.7077,-6.7197,0,0,-6.7097,-6.71,0,0,0,0,0,0,0,0,-6.689,-6.6901,-6.6988,-6.6988,-6.6986,-6.7032,-6.7035,-6.712,-6.7013,-6.7001,-6.7003,-6.6998,-6.7059,-6.7066,-6.7087,-6.72,-6.7203,-6.7097,-6.7101,-6.7104,-6.7106,0,0,0,0,0,0,0,-6.6885,-6.6898,-6.7037,-6.699,-6.6988,-6.697,-6.6977,-6.7051,-6.7052,-6.7002,-6.6997,-6.7006,-6.7057,-6.7081,-6.7088,-6.7204,-6.7097,-6.7103,-6.7107,-6.7109,-6.7421,-6.7425,0,0,0,0,0,0,-6.6882,-6.6894,-6.7035,-6.7039,-6.6927,-6.6977,-6.6984,-6.7021,-6.7051,-6.7052,-6.701,-6.7003,-6.7072,-6.7081,-6.709,-6.7234,-6.7104,-6.711,-6.7114,-6.7416,-6.7422,-6.7427,0,0,0,0,0,0,-6.6879,-6.6896,-6.7032,-6.6965,-6.6981,-6.6985,-6.7027,-6.7025,-6.7048,-6.7057,-6.7056,-6.7034,-6.7069,-6.7081,-6.7172,-6.7235,-6.7113,-6.7118,-6.7411,-6.7418,-6.7424,-6.7522,0,0,0,0,0,0,-6.6873,-6.6895,-6.6941,-6.6967,-6.6985,-6.7114,-6.7031,-6.7029,-6.706,-6.7052,-6.7079,-6.708,-6.7067,-6.7163,-6.7178,-6.7242,-6.7123,-6.7405,-6.7414,-6.7422,-6.7513,-6.7531,-6.7546,0,0,0,0,0,-6.6867,-6.6964,-6.6944,-6.6961,-6.7044,-6.7118,-6.7128,-6.7113,-6.7066,-6.7112,-6.7117,-6.7079,-6.7226,-6.7173,-6.7189,-6.7256,-6.7401,-6.7412,-6.7421,-6.7505,-6.7527,-6.7546,0,0,0,0,0,0,-6.6944,-6.6967,-6.6945,-6.7054,-6.7085,-6.7106,-6.7164,-6.7137,-6.718,-6.717,-6.7148,-6.7155,-6.7251,-6.7262,-6.7203,-6.7374,-6.7306,-6.732,-6.7364,-6.7385,-6.7401,-6.7397,-6.7129,0,0,0,0,0,-6.6974,-6.7034,-6.705,-6.7145,-6.7162,-6.7161,-6.7193,-6.7179,-6.7209,-6.7221,-6.7233,-6.7263,-6.7315,-6.735,-6.7399,-6.7514,-6.7519,-6.7568,-6.7585,-6.7598,-6.7611,-6.7673,-6.7696,-6.746,-6.746,-6.7459,0,0,-6.7036,-6.7056,-6.7095,-6.7161,-6.7184,-6.7246,-6.7172,-6.724,-6.7285,-6.723,-6.7318,-6.7328,-6.7359,-6.7463,-6.751,-6.7475,-6.7677,-6.7611,-6.7622,-6.7627,-6.7686,-6.7708,-6.7728,-6.7466,-6.7465,-6.7464,0,0,-6.7181,-6.7202,-6.7285,-6.7309,-6.7344,-6.7343,-6.7363,-6.7389,-6.7395,-6.7482,-6.7443,-6.7496,-6.7587,-6.7611,-6.7636,-6.7792,-6.7759,-6.7809,-6.7896,-6.7958,-6.7976,-6.7993,-6.805,-6.807,-6.7821,-6.7821,-6.7821,0,-6.7253,-6.7346,-6.733,-6.7402,-6.7432,-6.7388,-6.7471,-6.7494,-6.7543,-6.7565,-6.7526,-6.7641,-6.7659,-6.7769,-6.7807,-6.7828,-6.785,-6.7806,-6.7975,-6.7992,-6.8007,-6.8061,-6.8082,-6.7827,-6.7826,-6.7826,-6.7825,0,-6.7434,-6.7499,-6.7561,-6.7612,-6.765,-6.7726,-6.7721,-6.776,-6.7743,-6.7746,-6.7836,-6.7856,-6.7909,-6.7934,-6.7917,-6.8042,-6.802,-6.7979,-6.791,-6.8035,-6.8086,-6.8106,-6.7836,-6.7833,-6.7832,-6.783,0,0,-6.7629,-6.7672,-6.7695,-6.7718,-6.7755,-6.7804,-6.7879,-6.7933,-6.7968,-6.8003,-6.8065,-6.8144,-6.8107,-6.8135,-6.812,-6.8174,-6.8299,-6.8126,-6.8127,-6.8159,-6.8439,-6.847,-6.8495,-6.8277,-6.828,-6.8283,-6.8436,0,-6.7776,-6.7908,-6.7896,-6.8021,-6.8082,-6.8041,-6.8106,-6.8135,-6.814,-6.8191,-6.8195,-6.8252,-6.8198,-6.8215,-6.8266,-6.8273,-6.8355,-6.8261,-6.8334,-6.8337,-6.8328,-6.8521,-6.8554,-6.8697,-6.8456,-6.8459,-6.8462,0,-6.7965,-6.801,-6.8142,-6.8171,-6.8196,-6.8255,-6.8305,-6.8354,-6.8386,-6.8385,-6.8418,-6.8394,-6.8469,-6.8398,-6.8501,-6.8438,-6.8467,-6.8474,-6.8479,-6.8486,-6.8407,-6.8533,-6.8743,-6.8765,-6.8492,-6.849,-6.8488,0,-6.8096,-6.8189,-6.828,-6.8301,-6.8337,-6.838,-6.8397,-6.8425,-6.8459,-6.8501,-6.8523,-6.8573,-6.86,-6.8639,-6.8629,-6.8578,-6.8735,-6.8662,-6.8736,-6.8737,-6.8771,-6.8769,-6.8989,-6.8789,-6.8788,-6.8788,-6.8787,0,-6.8262,-6.8344,-6.834,-6.8396,-6.8487,-6.8473,-6.8563,-6.8574,-6.86,-6.8657,-6.8623,-6.8677,-6.8661,-6.8714,-6.8706,-6.8793,-6.8805,-6.8807,-6.8804,-6.8811,-6.8811,-6.883,-6.882,-6.8794,-6.8792,-6.8791,-6.879,0,-6.8423,-6.8423,-6.8521,-6.8548,-6.8556,-6.8623,-6.8645,-6.8698,-6.87,-6.8773,-6.8789,-6.8793,-6.8854,-6.8848,-6.8915,-6.8911,-6.9019,-6.9003,-6.9009,-6.9006,-6.908,-6.9074,-6.932,-6.9352,-6.913,-6.9133,-6.9134,0,-6.8529,-6.8592,-6.8627,-6.8664,-6.8685,-6.8744,-6.8779,-6.8767,-6.8805,-6.8847,-6.8895,-6.8953,-6.8999,-6.9098,-6.9106,-6.9158,-6.9144,-6.9227,-6.9151,-6.9157,-6.9147,-6.9144,-6.915,-6.9242,-6.9244,-6.9246,-6.9248,0,-6.8719,-6.8716,-6.8769,-6.8823,-6.8867,-6.8908,-6.8945,-6.8977,-6.8968,-6.9012,-6.9075,-6.9111,-6.9182,-6.924,-6.929,-6.9305,-6.9276,-6.9272,-6.9292,-6.93,-6.9301,-6.9302,-6.905,-6.9266,-6.9264,-6.9263,-6.9262,-6.9261,-6.8856,-6.8911,-6.8945,-6.9006,-6.9033,-6.9069,-6.9121,-6.9131,-6.9184,-6.9242,-6.9231,-6.9303,-6.9333,-6.9397,-6.9418,-6.9473,-6.9442,-6.9471,-6.9478,-6.9486,-6.9496,-6.9292,-6.9481,-6.9481,-6.948,-6.948,-6.9479,0,-6.9045,-6.9066,-6.9121,-6.9176,-6.9224,-6.9194,-6.9234,-6.9276,-6.934,-6.9372,-6.9419,-6.9492,-6.9549,-6.9562,-6.9616,-6.9658,-6.9646,-6.9672,-6.967,-6.9674,-6.9519,-6.9497,-6.9681,-6.9681,-6.9681,-6.9681,-6.9681,-6.9681,-6.9149,-6.9241,-6.9243,-6.9348,-6.9367,-6.9439,-6.9464,-6.9497,-6.9524,-6.9608,-6.9656,-6.9664,-6.9689,-6.9745,-6.9796,-6.9798,-6.982,-6.9853,-6.985,-6.9705,-6.9685,-6.9665,-6.9645,-6.9857,-6.9858,-7.0001,-7.0002,-7.0003]}]]